Regional Weather Roundup
Issued by NWS Northern Indiana

Home | Current Version | Previous Version | Graphics & Text | Print | Product List | Glossary On
Versions: 1 2 3 4 5 6 7 8 9 10 11 12 13 14 15 16 17 18 19 20 21 22 23 24 25 26 27 28 29 30 31 32 33 34 35 36 37 38 39 40 41 42 43 44 45 46 47 48 49 50
000
ASUS43 KIWX 201610
RWRIWX

KIWX WEATHER ROUNDUP
NATIONAL WEATHER SERVICE NORTHERN INDIANA
1200 PM EDT SUN APR 20 2014

NOTE: "FAIR" INDICATES FEW OR NO CLOUDS BELOW 12,000 FEET WITH NO
SIGNIFICANT WEATHER AND/OR OBSTRUCTIONS TO VISIBILITY.

* THESE STATIONS ARE NOT UNDER NWS QUALITY CONTROL. THEY ALSO MAY NOT
  REPORT WEATHER SUCH AS PRECIPITATION OR FOG.

INZ001>027-201700-
NORTHERN INDIANA

CITY           SKY/WX    TMP DP  RH WIND       PRES   REMARKS
GARY*          MOSUNNY   66  34  30 S9        30.21F
VALPARAISO     MOSUNNY   65  33  30 S12       30.23F
MICHIGAN CITY* SUNNY     64  32  29 S10G16    30.23F
LAPORTE*       SUNNY     64  32  30 S13       30.24S
SOUTH BEND     MOSUNNY   65  33  30 SW10      30.24F
GOSHEN         PTSUNNY   64  33  31 S10       30.24F
MONTICELLO*    PTSUNNY   59  37  43 SE5       30.24F
LOGANSPORT*    CLOUDY    63  34  34 S6        30.25F
ROCHESTER*     PTSUNNY   63  32  31 S6        30.25F
WARSAW*        PTSUNNY   61  32  33 S6        30.25F
ANGOLA*        SUNNY     61  34  36 S9        30.25F
FORT WAYNE     PTSUNNY   63  34  33 SE7       30.26F
HUNTINGTON*    FAIR      64  35  34 S6        30.25F
PERU/GRISSOM   CLOUDY    64  37  36 S7        30.24F
MARION*        PTSUNNY   64  32  29 S8        30.25F

$$
INZ028>050-201700-
CENTRAL INDIANA

CITY           SKY/WX    TMP DP  RH WIND       PRES   REMARKS
LAFAYETTE      MOSUNNY   67  37  33 S7        30.23F
KOKOMO*        CLOUDY    66  37  34 S8        30.25S
MUNCIE*        MOSUNNY   67  32  27 SW8       30.24F
INDIANAPOLIS   MOSUNNY   63  38  39 CALM      30.24F

$$
MIZ043>046-050>051-056>058-064>065-071>073-077>080-201700-
SOUTHWEST LOWER MICHIGAN

CITY           SKY/WX    TMP DP  RH WIND       PRES   REMARKS
BATTLE CREEK   MOSUNNY   63  33  32 S12       30.25F
BENTON HARBOR  MOSUNNY   64  36  35 S10       30.23F
COLDWATER*     PTSUNNY   61  28  28 S9        30.25F
HILLSDALE*     MOSUNNY   63  27  25 S9        30.25F
HOLLAND        MOSUNNY   64  35  34 SW9       30.23F
GRAND RAPIDS   PTSUNNY   62  29  28 VRB7      30.24F
KALAMAZOO      MOSUNNY   63  31  30 S12       30.25F
STURGIS*       PTSUNNY   61  32  33 S10       30.25F
THREE RIVERS*  FAIR      64  31  29 S9        30.25F

$$
OHZ001>008-015>018-024>025-201700-
NORTHWEST OHIO

CITY           SKY/WX    TMP DP  RH WIND       PRES   REMARKS
WAUSEON*       FAIR      63  34  34 S10       30.27F
DEFIANCE       SUNNY     63  34  33 S8        30.27F
FINDLAY        SUNNY     65  30  27 VRB6      30.25F
TOLEDO EXPRESS SUNNY     65  30  27 S5        30.26F
TOLEDO METCALF SUNNY     65  30  27 S6        30.27F
LIMA           SUNNY     66  31  27 S7        30.25F

$$
&&



USA.gov is the U.S. government's official web portal to all federal, state and local government web resources and services.